SCP
0 0 1 1 1 1 1 1 1 1 2 2 2 2 1 1 1 1 1 1 1 1 1 1 1 1 1 1 1 1 1 1 1 1 0 0 0 0 0 0 0 0 0
0 0 1 1 1 1 1 1 1 1 2 2 2 2 2 1 1 1 1 1 1 1 1 1 1 1 1 1 1 1 1 1 1 1 0 0 0 0 0 0 0 0 0
1 1 1 1 1 1 1 1 1 1 1 1 1 2 2 2 2 2 1 1 1 1 1 1 1 1 1 1 1 1 1 1 1 1 1 0 0 0 0 0 0 0 0
1 1 1 1 1 1 1 1 1 1 1 1 1 1 1 2 2 2 2 2 1 1 1 1 1 1 1 1 1 1 1 1 1 1 0 0 0 0 0 0 0 0 0
0 0 0 1 1 1 1 1 1 1 1 1 1 1 1 1 2 2 2 2 2 1 1 1 1 1 1 1 1 1 1 1 1 0 0 0 0 0 0 0 0 0 0
0 0 0 0 1 1 1 1 1 1 1 1 1 1 1 1 1 1 1 2 2 1 1 1 1 1 1 1 1 1 1 1 0 0 0 0 0 0 0 0 0 0 0
0 0 0 0 0 0 0 0 0 0 0 1 1 1 1 1 1 1 1 1 1 1 1 1 1 1 1 1 1 1 1 1 0 0 0 0 0 0 0 0 0 0 0
0 0 0 0 0 0 0 0 0 0 0 0 0 0 1 1 1 1 1 1 1 1 1 1 1 1 1 1 1 1 1 1 1 0 0 0 0 0 0 0 0 0 0
0 0 0 0 0 0 0 0 0 0 0 0 0 0 1 1 1 1 1 1 1 1 1 1 1 1 1 1 1 1 1 1 1 1 0 0 0 0 0 0 0 0 0
0 0 0 0 0 0 0 0 0 0 0 0 0 0 0 0 1 1 1 1 1 1 1 1 1 1 1 1 1 1 1 1 1 1 0 1 1 1 0 0 0 0 0
0 0 0 0 0 0 0 0 0 0 0 0 0 0 0 0 0 0 0 1 1 1 1 1 1 1 1 1 1 1 1 1 1 1 1 1 1 1 0 0 0 0 0
0 0 0 0 0 0 0 0 0 0 0 0 0 0 0 0 0 0 0 0 1 1 1 1 1 1 1 1 1 1 1 1 1 0 0 1 1 1 1 0 1 1 0
0 0 0 0 0 0 0 0 0 0 0 0 0 0 0 0 0 0 0 0 0 0 0 0 1 1 1 1 1 1 1 1 0 0 0 1 1 1 1 1 1 1 1
0 0 0 0 0 0 0 0 0 0 0 0 0 0 0 0 0 0 0 0 0 0 0 0 0 0 1 1 1 1 1 1 0 0 0 1 1 1 1 1 1 1 1
0 0 0 0 0 0 0 0 0 0 0 0 0 0 0 0 0 0 0 0 0 0 0 0 0 0 0 1 1 1 1 1 0 0 0 1 1 1 1 1 1 1 1
0 0 0 0 0 0 0 0 0 0 0 0 0 0 0 0 0 0 0 0 0 0 0 0 0 0 0 0 1 1 1 1 1 0 0 0 1 1 1 1 1 1 1
0 0 0 0 0 0 0 0 0 0 0 0 0 0 0 0 0 0 0 0 0 0 0 0 0 0 0 0 0 1 1 1 1 0 0 0 0 1 1 1 1 1 1
0 0 0 0 0 0 0 0 0 0 0 0 0 0 0 0 0 0 0 0 0 0 0 0 0 0 0 0 0 1 1 1 1 0 0 0 0 0 1 1 1 1 1
0 0 0 0 0 0 0 0 0 0 0 0 0 0 0 0 0 0 0 0 0 0 0 0 0 0 0 0 0 0 1 1 1 0 0 0 0 0 0 1 1 1 1
0 0 0 0 0 0 0 0 0 0 0 0 0 0 0 0 0 0 0 0 0 0 0 0 0 0 0 0 0 0 1 1 1 1 0 0 0 0 0 0 1 1 1
0 0 0 0 0 0 0 0 0 0 0 0 0 0 0 0 0 0 0 0 0 0 0 0 0 0 0 0 0 0 0 0 1 0 0 0 0 0 0 0 1 1 1
0 0 0 0 0 0 0 0 0 0 0 0 0 0 0 0 0 0 0 0 0 0 0 0 0 0 0 0 0 0 0 0 0 0 0 0 0 0 0 1 1 1 1
0 0 0 0 0 0 0 0 0 0 0 0 0 0 0 0 0 0 0 0 0 0 0 0 0 0 0 0 0 0 0 0 0 0 0 0 0 0 0 1 1 1 1
0 0 0 0 0 0 0 0 0 0 0 0 0 0 0 0 0 0 0 0 0 0 0 0 0 0 0 0 0 0 0 0 0 0 0 0 0 0 0 0 0 0 0
0 0 0 0 0 0 0 0 0 0 0 0 0 0 0 0 0 0 0 0 0 0 0 0 0 0 0 0 0 0 0 0 0 0 0 0 0 0 0 0 0 0 0
0 0 0 0 0 0 0 0 0 0 0 0 0 0 0 0 0 0 0 0 0 0 0 0 0 0 0 0 0 0 0 0 0 0 0 0 0 0 0 0 0 0 0
Wind_Speed
3 4 9 9 9 8 8 8 8 8 8 8 8 8 7 7 7 7 6 6 6 6 6 6 6 6 7 6 6 6 6 6 6 6 5 5 5 5 6 7 7 5 8
7 6 10 9 9 8 7 7 7 7 7 6 6 6 6 6 6 5 5 5 5 5 5 5 5 5 5 5 5 5 5 5 5 5 4 3 4 4 6 7 7 4 8
8 6 7 9 9 8 7 7 6 6 5 5 5 5 4 4 4 4 4 4 3 3 3 3 3 3 3 3 3 3 4 4 5 5 3 1 1 4 5 6 7 7 7
9 6 7 10 9 8 7 6 6 5 5 4 4 4 3 3 2 2 1 1 2 2 2 2 1 1 1 1 2 2 3 4 4 4 2 0 1 5 6 6 7 7 7
8 6 7 10 9 8 7 6 5 5 4 3 3 2 1 1 0 0 1 1 1 1 1 1 1 1 1 1 1 2 3 4 4 4 1 1 1 4 6 6 6 7 7
8 6 7 11 10 8 7 6 5 4 3 2 1 0 1 1 2 2 3 3 2 2 2 1 1 1 1 2 2 2 3 4 3 2 0 1 2 5 6 6 6 7 7
7 5 6 10 9 8 7 5 4 3 2 1 1 2 2 3 4 4 5 5 5 5 4 3 3 2 2 2 3 3 4 5 2 1 0 2 3 6 7 6 6 7 7
8 6 5 9 9 8 7 5 4 3 1 0 1 3 3 4 5 6 6 6 6 5 5 5 4 4 4 4 4 5 5 5 2 1 1 2 5 8 8 7 7 7 7
7 6 4 4 5 7 7 6 4 3 2 1 2 3 4 5 6 7 7 7 7 6 7 7 7 6 6 6 6 6 6 5 2 1 2 2 6 8 8 7 7 7 7
6 6 5 4 4 3 4 5 4 3 3 2 3 5 6 6 7 7 7 7 8 7 8 7 8 7 7 7 8 7 7 4 1 2 1 3 6 8 8 8 8 7 7
5 5 5 5 4 3 4 4 3 3 3 2 3 6 5 3 4 4 7 8 8 8 8 8 8 8 8 7 8 7 6 1 1 2 2 4 7 9 9 9 8 8 8
5 5 4 5 4 3 3 2 1 1 1 1 1 2 2 2 2 3 4 6 7 8 8 8 8 7 5 2 4 5 2 2 2 2 2 5 7 9 9 9 9 9 9
6 5 4 4 4 3 2 1 1 0 0 1 1 1 1 1 2 2 2 3 4 5 3 4 4 2 2 2 2 2 2 3 2 2 3 7 6 8 9 10 9 9 10
6 5 5 5 4 3 2 1 1 0 0 0 1 0 1 1 2 2 1 2 2 1 2 2 1 2 2 3 3 3 3 2 2 2 3 7 7 7 9 9 10 10 10
6 5 5 6 5 3 2 1 2 1 0 0 1 1 2 1 2 2 2 2 2 2 2 2 2 2 2 2 2 3 3 3 3 2 2 6 7 7 8 9 9 10 10
7 7 6 6 6 5 3 2 1 1 1 2 2 2 3 2 2 2 2 3 2 2 2 1 2 1 2 1 2 2 3 3 3 3 2 4 6 6 7 9 10 11 11
9 7 7 7 6 5 4 3 2 2 2 2 2 2 3 3 3 2 2 2 2 2 3 2 2 1 1 1 2 2 2 2 2 2 2 2 3 5 7 9 10 11 11
9 7 7 7 6 5 4 3 2 2 2 2 2 2 3 3 3 2 2 2 3 2 2 2 1 1 1 1 2 2 1 1 2 2 2 2 2 2 4 8 9 11 11
10 9 7 7 7 5 4 3 2 2 2 1 1 1 2 3 3 2 2 2 3 2 2 2 1 1 1 2 2 1 1 1 2 2 2 2 2 2 2 5 8 9 10
9 8 8 7 6 5 3 3 2 2 1 1 1 1 1 2 3 2 2 2 3 2 3 2 2 2 1 2 2 2 1 1 1 1 2 1 1 1 2 3 3 5 8
8 8 8 7 6 4 3 2 2 1 0 0 0 1 1 1 2 2 2 2 2 2 2 3 2 2 2 1 2 2 3 1 0 1 1 1 0 1 1 2 2 2 3
10 9 8 8 7 5 3 3 2 2 1 1 1 0 0 0 1 1 2 2 2 2 3 3 2 1 2 2 1 1 2 3 3 1 0 0 0 1 1 2 2 2 2
10 10 9 8 7 6 5 3 3 3 2 1 1 1 2 1 0 1 2 1 2 1 1 2 2 2 1 2 1 2 2 0 2 2 2 1 0 0 1 0 2 2 3
10 9 9 9 8 6 6 5 4 3 2 2 2 2 2 1 1 1 1 1 2 1 1 2 1 1 1 1 2 1 1 2 1 1 2 2 0 0 0 0 1 1 2
10 9 9 8 7 6 6 6 5 3 2 2 1 1 1 1 2 1 1 1 1 1 1 2 2 1 1 1 1 1 1 1 1 2 1 2 2 1 1 0 1 1 1
8 8 8 9 7 6 6 6 6 5 4 2 1 1 1 1 2 2 1 0 0 0 1 1 1 1 1 1 1 1 1 1 0 1 1 1 1 2 2 1 0 1 1
Wind_Direction
147 160 143 135 129 122 117 117 116 113 111 110 109 107 105 101 98 95 95 90 89 88 84 80 77 77 76 71 65 60 56 55 55 56 56 61 73 77 84 91 85 78 77
151 151 140 134 131 127 123 121 120 120 116 114 112 111 110 108 106 104 101 97 93 92 90 86 81 76 76 70 62 54 46 42 42 42 46 55 79 88 95 102 94 90 84
136 136 133 130 128 127 125 123 120 119 118 117 116 115 113 111 107 105 104 104 100 98 98 96 92 83 76 69 55 41 31 26 22 20 36 71 116 113 109 110 107 99 93
133 131 130 129 126 124 122 118 117 117 116 115 112 109 108 109 115 115 116 113 108 107 109 111 107 104 91 67 41 18 6 7 8 10 40 118 157 128 122 119 113 103 99
132 133 136 131 129 126 124 123 120 115 114 118 116 112 111 112 106 283 266 263 234 172 153 145 155 200 217 244 304 324 334 342 356 12 46 119 149 144 133 127 119 111 107
138 141 143 137 134 133 131 128 125 121 116 115 106 63 298 285 288 285 277 275 265 250 246 240 233 239 247 256 269 292 308 320 349 13 352 175 170 154 144 138 131 124 116
146 150 150 143 141 139 136 132 127 124 115 102 319 305 297 294 294 291 284 279 270 259 254 250 239 249 259 262 266 274 286 300 317 342 249 190 187 166 154 151 142 135 128
150 153 155 154 152 149 145 143 143 144 144 257 307 309 310 303 299 296 289 282 277 269 263 256 251 250 256 262 261 264 270 283 309 340 271 207 199 175 165 160 154 145 140
151 152 159 163 162 163 164 166 166 171 196 265 302 307 306 304 299 292 284 281 278 276 274 266 259 256 255 256 257 261 267 274 289 287 268 227 200 180 172 165 159 154 149
156 162 169 173 174 175 185 189 186 196 222 260 292 299 298 304 304 294 283 277 275 277 278 275 268 262 260 260 258 259 268 275 275 285 266 233 202 184 178 172 167 162 158
160 173 175 176 180 184 197 208 195 208 241 268 296 300 304 311 308 296 281 272 273 280 284 280 276 270 265 263 262 265 271 248 256 271 256 242 212 191 185 179 174 170 166
173 179 177 173 174 183 194 177 212 230 266 282 291 302 312 314 310 320 295 288 285 290 291 286 283 283 276 253 259 265 250 233 237 255 254 250 219 197 188 184 180 176 172
179 167 161 154 157 166 164 163 198 276 273 297 301 297 340 350 339 351 339 322 318 314 310 302 304 299 273 239 233 232 229 227 228 247 258 253 229 203 193 189 186 181 177
165 159 149 141 142 152 146 149 144 147 267 322 306 12 47 20 359 343 342 328 326 317 307 298 294 291 276 254 239 233 232 229 224 234 247 243 229 216 203 195 192 186 181
158 152 145 137 137 132 109 92 108 126 111 92 27 24 53 43 2 350 345 350 339 327 312 303 304 297 289 274 259 242 235 233 228 222 245 245 229 222 212 202 196 193 189
162 153 145 136 135 124 111 99 96 105 89 72 49 37 49 48 23 10 6 359 346 337 325 308 298 291 285 275 273 264 240 232 231 221 223 248 239 228 218 209 203 200 196
164 157 152 141 131 121 110 96 98 93 95 83 65 50 52 52 40 28 16 357 338 341 352 354 337 334 323 309 289 279 260 235 225 224 220 226 240 237 228 221 211 205 199
159 156 156 141 131 126 118 104 95 90 95 95 81 58 50 50 46 34 18 348 338 353 359 350 346 345 329 312 291 283 272 239 237 229 217 220 221 237 234 232 221 207 201
161 155 146 137 138 134 123 102 92 92 100 110 91 67 45 40 40 38 16 340 349 6 2 347 359 341 317 312 289 274 273 239 231 236 220 221 218 227 225 235 225 209 202
158 151 144 139 140 131 106 86 70 66 67 79 96 94 65 41 34 36 14 352 4 12 359 351 334 329 297 299 311 333 296 258 214 229 235 215 207 236 219 218 212 211 207
152 149 149 144 148 135 116 112 109 121 220 354 252 156 93 56 33 36 13 2 9 12 349 348 347 344 333 348 27 357 347 349 57 229 220 173 183 273 217 197 186 187 209
161 158 153 153 155 153 146 151 159 163 192 220 268 304 256 28 7 34 29 8 4 11 6 7 18 11 346 18 72 58 6 356 356 7 58 119 177 266 226 188 163 179 192
166 166 162 162 158 157 145 120 88 62 38 23 345 303 289 265 284 28 24 24 13 28 6 357 12 42 4 348 45 113 110 289 325 347 8 31 67 264 259 160 168 175 189
175 167 158 159 157 158 147 136 137 143 174 224 228 250 275 260 265 317 16 32 24 19 2 343 36 37 72 9 349 21 130 163 137 357 341 345 357 159 226 188 180 179 181
168 163 159 156 158 161 156 149 148 160 192 224 234 255 281 290 283 289 335 48 38 18 3 8 17 26 57 89 43 15 28 43 72 116 10 337 345 334 321 164 165 168 170
160 159 158 157 164 167 161 159 164 173 183 192 214 222 263 276 293 288 277 32 12 341 344 359 8 35 46 64 63 62 86 83 70 106 125 303 315 315 333 358 124 170 184